Tracking 17143 objects as of 25-May-2015
HD Live streaming from Space Station

ECHOSTAR 1

Track ECHOSTAR 1 now!
ECHOSTAR 1 is classified as:


NORAD ID: 23754
Int'l Code: 1995-073A
Perigee: 35,784.9 km
Apogee: 35,802.5 km
Inclination: 0.0 °
Period: 1,436.1 minutes
Semi major axis: 42164 km
RCS: 30.9641 m2 (large)
Launch date: December 28, 1995
Source: United States (US)

Western United States to Central/Mountain region; 16 Ku-band transponders
Your satellite tracking list
Your tracking list is empty





NASA's NSSDC Master Catalog

Two Line Element Set (TLE):
1 23754U 95073A   15144.29933718 -.00000254  00000-0  10000-3 0  9998
2 23754 000.0061 004.5852 0002087 045.5847 222.0075 01.00272094 70914

Source of the keplerian elements: AFSPC

N2YO: 341